Location: Darmstadt
(49.8706°N, 8.6494°E)
Time: 07:12:25
(UTC+01:00)

Cosmos 2263 Rocket - Pass Details

Date: 31 October 2020
Orbit: 822 x 850 km, 71.0° (Epoch: 03 December)

Event Time Altitude Azimuth Distance (km) Brightness Sun altitude
Rises 20:47:39 0° 323° (NW) 3,423 6.1 -36.1°
Reaches altitude 10° 20:50:29 10° 310° (NW) 2,484 5.3 -36.5°
Maximum altitude 20:55:01 25° 258° (WSW) 1,655 4.0 -37.2°
Enters shadow 20:55:19 25° 252° (WSW) 1,660 4.0 -37.2°
